Volver al catálogo

STARLINK-2741

ActivoComunicacionesVLEO
NORAD 48684·PAYLOAD·🇺🇸 United States

Lanzado May 26, 2021 desde Cape Canaveral Space Force Station

Loading…

Próximos Pases (próximas 24 horas)

TLE

ActualizadoSource: CelesTrak SupGP

Época: Sep 14, 2026, 20:03 UTC

1 48684C 21044AY  26257.83590278  .00017297  00000+0  55618-3 0  2575
2 48684  53.1577 277.6741 0000803  77.4073 281.3518 15.31695978    16

Sigue STARLINK-2741 en tiempo real con AllMySat

Download on the App Store